Location: Waco, TX
(31.5480°N, 97.1670°W)
Time: 13:18:10

ISS - Pass Details

Date: 12 March 2018
Orbit: 403 x 406 km, 51.6° (Epoch: 18 March)

Event Time Altitude Azimuth Distance (km) Brightness Sun altitude
Rises 00:40:51 0° 197° (SSW) 2,308 - -58.7°
Reaches altitude 10° 00:43:11 10° 182° (S) 1,453 - -58.9°
Maximum altitude 00:45:48 22° 128° (SE) 930 - -59.2°
Drops below altitude 10° 00:48:25 10° 75° (ENE) 1,459 - -59.4°
Sets 00:50:47 0° 60° (ENE) 2,322 - -59.6°
